Вернуться в каталог

STARLINK-33545

АктивенСвязьVLEO
NORAD 62101·PAYLOAD·🇺🇸 United States

Запущен Nov 25, 2024 с Cape Canaveral Space Force Station

Loading…

Ближайшие Пролёты (ближайшие 24 часа)

TLE

СвежийSource: CelesTrak SupGP

Эпоха: Sep 15, 2026, 02:48 UTC

1 62101C 24220P   26258.11715278 -.00046371  00000+0 -16797-2 0  2587
2 62101  42.9995 215.5072 0001194 270.5521 122.8306 15.27598598    11

Отслеживайте STARLINK-33545 в реальном времени с AllMySat

Download on the App Store